Faith, SD

11:04 PM MDT on September 21, 2017 (GMT -0600)
Faith

Weather History for KD07 - May, 2013

Change the Weather History Date:

Tuesday, May 28, 2013

  Actual Average Record
Temperature  
Mean Temperature 61 °F 58 °F  
Max Temperature 75 °F 70 °F 88 °F (2002)
Min Temperature 47 °F 47 °F 37 °F (2005)
Degree Days  
Heating Degree Days 4 7  
Month to date heating degree days 277 299  
Since 1 July heating degree days 7518 7598  
Cooling Degree Days 0 1  
Month to date cooling degree days 13 2  
Year to date cooling degree days 13 3  
Growing Degree Days 10 (Base 50)    
Moisture  
Dew Point 51 °F    
Average Humidity 67    
Maximum Humidity 100    
Minimum Humidity 33    
Precipitation  
Precipitation 0.00 in 0.11 in 0.26 in (2015)
Month to date precipitation 4.48 2.75  
Year to date precipitation 6.66 5.98  
Sea Level Pressure  
Sea Level Pressure 29.69 in    
Wind  
Wind Speed 9 mph (WSW)    
Max Wind Speed 21 mph    
Max Gust Speed 25 mph    
T = Trace of Precipitation, MM = Missing Value Source: NWS Daily Summary

Daily Weather History Graph

Daily Weather History Graph

Search for Another Location

Airport or City:

Trip Planner

Search our weather history database for the weather conditions in past years. The results will help you decide how hot, cold, wet, or windy it might be!

Date:

Astronomy

May. 28, 2013 Rise Set
Actual Time 5:06 AM MDT 8:24 PM MDT
Civil Twilight 4:30 AM MDT 9:00 PM MDT
Nautical Twilight 3:44 AM MDT 9:47 PM MDT
Astronomical Twilight 2:45 AM MDT 10:46 PM MDT
Moon 11:43 PM MDT (5/28) 9:01 AM MDT (5/28)
Length of Visible Light 16h 29m
Length of Day
15h 17m
Waning Gibbous, 82% of the Moon is Illuminated
May 28
Waning Gibbous
May 31
Last Quarter
Jun 8
New
Jun 16
First Quarter
Jun 23
Full

Hourly Weather History & Observations

Time (MDT) Temp. Dew Point Humidity Pressure Visibility Wind Dir Wind Speed Gust Speed Precip Events Conditions
12:56 AM 53.1 °F 53.1 °F 100% 29.75 in - West 5.8 mph - N/A   Unknown
1:56 AM 53.1 °F 53.1 °F 100% 29.70 in - West 10.4 mph - N/A   Unknown
2:56 AM 52.0 °F 52.0 °F 100% 29.70 in - West 9.2 mph - N/A   Unknown
3:56 AM 52.0 °F 52.0 °F 100% 29.69 in - WNW 9.2 mph - N/A   Unknown
4:56 AM 50.0 °F 50.0 °F 100% 29.70 in - WSW 5.8 mph - N/A   Unknown
5:56 AM 46.9 °F 46.9 °F 100% 29.72 in - SW 9.2 mph - N/A   Unknown
6:56 AM 48.9 °F 48.9 °F 100% 29.72 in - SW 12.7 mph - N/A   Unknown
7:56 AM 55.9 °F 51.1 °F 84% 29.73 in - West 11.5 mph - N/A   Unknown
8:56 AM 62.1 °F 50.0 °F 65% 29.71 in - West 16.1 mph - N/A   Unknown
9:56 AM 64.9 °F 51.1 °F 61% 29.71 in - WNW 15.0 mph - N/A   Unknown
10:56 AM 68.0 °F 48.9 °F 50% 29.70 in - WNW 13.8 mph - N/A   Unknown
11:56 AM 70.0 °F 48.0 °F 46% 29.69 in - WNW 10.4 mph - N/A   Unknown
12:56 PM 71.1 °F 48.9 °F 45% 29.69 in - Variable 4.6 mph - N/A   Unknown
1:56 PM 73.0 °F 48.9 °F 42% 29.68 in - West 5.8 mph - N/A   Unknown
2:56 PM 73.9 °F 48.0 °F 40% 29.67 in - North 5.8 mph - N/A   Unknown
3:56 PM 73.0 °F 46.0 °F 38% 29.67 in - WSW 3.5 mph - N/A   Unknown
4:56 PM 75.0 °F 45.0 °F 34% 29.66 in - Calm Calm - N/A   Unknown
5:56 PM 70.0 °F 53.1 °F 55% 29.67 in - SE 5.8 mph - N/A   Unknown
6:56 PM 70.0 °F 53.1 °F 55% 29.66 in - ESE 5.8 mph - N/A   Unknown
7:56 PM 66.0 °F 55.9 °F 70% 29.65 in - SE 6.9 mph - N/A   Unknown
8:56 PM 64.9 °F 54.0 °F 68% 29.64 in - SE 10.4 mph - N/A   Unknown
9:56 PM 64.0 °F 55.0 °F 73% 29.67 in - SE 11.5 mph - N/A   Unknown
10:56 PM 61.0 °F 55.9 °F 83% 29.68 in - SSE 9.2 mph - N/A   Unknown
11:56 PM 59.0 °F 55.9 °F 90% 29.68 in - SSW 9.2 mph - N/A   Unknown